| time (UTC) | temp F | wind direction | speed knots | gust knots | rain 1hr in | rain 24hr in | rain mn in | humidity % | barometer mb |
| 20260901070044 | 61 | 218 | 0.0 | 1.7 | 0.00 | 0.07 | 0.00 | 89 | 1021.4 |
| 20260901065518 | 61 | 218 | 0.0 | 1.7 | 0.00 | 0.07 | 0.00 | 88 | 1021.2 |
| 20260901065021 | 62 | 218 | 0.0 | 1.7 | 0.00 | 0.07 | 0.00 | 88 | 1021.3 |
| 20260901064509 | 62 | 218 | 0.0 | 1.7 | 0.00 | 0.07 | 0.00 | 87 | 1021.3 |
| 20260901064008 | 62 | 218 | 0.0 | 1.7 | 0.00 | 0.07 | 0.00 | 86 | 1021.2 |
| 20260901063508 | 62 | 223 | 0.0 | 1.7 | 0.00 | 0.07 | 0.00 | 86 | 1021.3 |
| 20260901063019 | 62 | 223 | 0.0 | 1.7 | 0.00 | 0.07 | 0.00 | 84 | 1021.3 |
| 20260901062514 | 63 | 133 | 0.0 | 1.7 | 0.00 | 0.07 | 0.00 | 82 | 1021.3 |
| 20260901062012 | 63 | 51 | 0.0 | 2.6 | 0.00 | 0.07 | 0.00 | 81 | 1020.9 |
| 20260901061532 | 63 | 73 | 0.0 | 2.6 | 0.00 | 0.07 | 0.00 | 79 | 1021.3 |
| 20260901061017 | 63 | 208 | 0.9 | 2.6 | 0.00 | 0.07 | 0.00 | 78 | 1021.7 |
| 20260901060506 | 63 | 188 | 0.9 | 2.6 | 0.00 | 0.07 | 0.00 | 77 | 1021.2 |
| 20260901060016 | 63 | 281 | 0.0 | 2.6 | 0.00 | 0.07 | 0.00 | 78 | 1021.1 |
| 20260901055507 | 63 | 240 | 0.9 | 2.6 | 0.00 | 0.07 | 0.07 | 78 | 1021.0 |
| 20260901055013 | 63 | 248 | 0.0 | 2.6 | 0.00 | 0.07 | 0.07 | 79 | 1021.0 |
| 20260901054527 | 62 | 236 | 0.9 | 2.6 | 0.00 | 0.07 | 0.07 | 79 | 1021.0 |
| 20260901054017 | 62 | 247 | 0.0 | 1.7 | 0.00 | 0.07 | 0.07 | 81 | 1021.1 |
| 20260901053515 | 62 | 246 | 0.0 | 2.6 | 0.00 | 0.07 | 0.07 | 82 | 1021.1 |
| 20260901053032 | 61 | 278 | 0.0 | 2.6 | 0.00 | 0.07 | 0.07 | 85 | 1021.2 |
| 20260901052506 | 61 | 287 | 0.0 | 1.7 | 0.00 | 0.07 | 0.07 | 85 | 1021.3 |
| 20260901052010 | 61 | 325 | 0.0 | 1.7 | 0.00 | 0.07 | 0.07 | 87 | 1021.4 |
| 20260901051520 | 61 | 69 | 0.0 | 1.7 | 0.00 | 0.07 | 0.07 | 89 | 1021.5 |
| 20260901051011 | 61 | 223 | 0.0 | 1.7 | 0.00 | 0.07 | 0.07 | 89 | 1021.5 |
| 20260901050519 | 61 | 223 | 0.0 | 1.7 | 0.00 | 0.07 | 0.07 | 89 | 1021.6 |
| 20260901050030 | 61 | 223 | 0.0 | 1.7 | 0.00 | 0.07 | 0.07 | 89 | 1021.6 |
| 20260901045518 | 61 | 223 | 0.0 | 1.7 | 0.00 | 0.07 | 0.07 | 89 | 1021.6 |
| 20260901045015 | 61 | 219 | 0.0 | 1.7 | 0.00 | 0.07 | 0.07 | 89 | 1021.6 |
| 20260901044536 | 61 | 219 | 0.0 | 1.7 | 0.00 | 0.07 | 0.07 | 89 | 1021.6 |
| 20260901044008 | 61 | 198 | 0.0 | 1.7 | 0.00 | 0.07 | 0.07 | 89 | 1021.5 |
| 20260901043509 | 61 | 229 | 0.0 | 1.7 | 0.00 | 0.07 | 0.07 | 89 | 1021.6 |
| 20260901043019 | 61 | 228 | 0.0 | 1.7 | 0.00 | 0.07 | 0.07 | 89 | 1021.6 |
| 20260901042517 | 62 | 198 | 0.0 | 2.6 | 0.00 | 0.07 | 0.07 | 89 | 1021.5 |
| 20260901042013 | 62 | 195 | 0.0 | 2.6 | 0.00 | 0.07 | 0.07 | 89 | 1021.3 |
| 20260901041532 | 62 | 194 | 0.9 | 2.6 | 0.00 | 0.07 | 0.07 | 88 | 1021.4 |
| 20260901041018 | 62 | 119 | 0.0 | 1.7 | 0.00 | 0.07 | 0.07 | 88 | 1021.5 |
| 20260901040519 | 62 | 119 | 0.0 | 1.7 | 0.00 | 0.07 | 0.07 | 88 | 1021.5 |
| 20260901040016 | 63 | 85 | 0.0 | 1.7 | 0.00 | 0.07 | 0.07 | 88 | 1021.3 |
| 20260901035514 | 63 | 50 | 0.0 | 1.7 | 0.00 | 0.07 | 0.07 | 88 | 1021.2 |
| 20260901035014 | 62 | 36 | 0.9 | 1.7 | 0.00 | 0.07 | 0.07 | 86 | 1021.3 |
| 20260901034528 | 62 | 349 | 0.9 | 1.7 | 0.01 | 0.07 | 0.07 | 88 | 1021.6 |
| 20260901034014 | 62 | 352 | 0.0 | 1.7 | 0.01 | 0.07 | 0.07 | 87 | 1022.0 |
| 20260901033518 | 63 | 310 | 0.0 | 1.7 | 0.01 | 0.07 | 0.07 | 86 | 1022.3 |
| 20260901033039 | 63 | 317 | 0.0 | 2.6 | 0.05 | 0.07 | 0.07 | 85 | 1022.4 |
| 20260901032519 | 63 | 336 | 0.9 | 2.6 | 0.07 | 0.07 | 0.07 | 85 | 1022.1 |
| 20260901032012 | 63 | 22 | 0.9 | 1.7 | 0.07 | 0.07 | 0.07 | 86 | 1022.5 |
| 20260901031523 | 63 | 198 | 0.0 | 1.7 | 0.07 | 0.07 | 0.07 | 85 | 1022.7 |
| 20260901031013 | 63 | 203 | 0.0 | 1.7 | 0.07 | 0.07 | 0.07 | 86 | 1022.7 |
| 20260901030517 | 63 | 205 | 0.0 | 1.7 | 0.07 | 0.07 | 0.07 | 85 | 1022.7 |
| 20260901030027 | 64 | 123 | 0.0 | 1.7 | 0.07 | 0.07 | 0.07 | 85 | 1022.7 |
| 20260901025518 | 64 | 180 | 0.0 | 1.7 | 0.07 | 0.07 | 0.07 | 83 | 1022.6 |
| 20260901025015 | 64 | 221 | 0.0 | 1.7 | 0.07 | 0.07 | 0.07 | 81 | 1022.5 |
| 20260901024534 | 65 | 221 | 0.0 | 1.7 | 0.06 | 0.06 | 0.06 | 79 | 1022.5 |
| 20260901024008 | 66 | 161 | 0.0 | 8.7 | 0.06 | 0.06 | 0.06 | 66 | 1022.5 |
| 20260901023510 | 68 | 174 | 1.7 | 10.4 | 0.06 | 0.06 | 0.06 | 66 | 1022.3 |
| 20260901023026 | 71 | 205 | 5.2 | 10.4 | 0.02 | 0.02 | 0.02 | 59 | 1021.8 |
| 20260901022515 | 72 | 157 | 3.5 | 7.8 | 0.00 | 0.00 | 0.00 | 51 | 1021.2 |
| 20260901022018 | 71 | 199 | 0.9 | 5.2 | 0.00 | 0.00 | 0.00 | 50 | 1020.5 |
| 20260901021545 | 71 | 246 | 1.7 | 5.2 | 0.00 | 0.00 | 0.00 | 51 | 1020.3 |
| 20260901021015 | 71 | 321 | 0.9 | 5.2 | 0.00 | 0.00 | 0.00 | 51 | 1020.2 |
| 20260901020508 | 71 | 250 | 0.9 | 3.5 | 0.00 | 0.00 | 0.00 | 51 | 1020.2 |
| 20260901020018 | 71 | 227 | 0.9 | 3.5 | 0.00 | 0.00 | 0.00 | 52 | 1020.1 |
| 20260901015513 | 71 | 234 | 0.9 | 3.5 | 0.00 | 0.00 | 0.00 | 52 | 1020.2 |
| 20260901015016 | 71 | 233 | 0.9 | 5.2 | 0.00 | 0.00 | 0.00 | 53 | 1020.1 |
| 20260901014529 | 71 | 277 | 0.9 | 5.2 | 0.00 | 0.00 | 0.00 | 53 | 1020.1 |
| 20260901014019 | 71 | 290 | 0.9 | 7.0 | 0.00 | 0.00 | 0.00 | 54 | 1020.1 |
| 20260901013518 | 71 | 252 | 0.9 | 7.0 | 0.00 | 0.00 | 0.00 | 54 | 1020.1 |
| 20260901013036 | 71 | 286 | 1.7 | 6.1 | 0.00 | 0.00 | 0.00 | 53 | 1020.1 |
| 20260901012507 | 71 | 298 | 0.9 | 6.1 | 0.00 | 0.00 | 0.00 | 53 | 1020.1 |
| 20260901012009 | 71 | 220 | 1.7 | 6.1 | 0.00 | 0.00 | 0.00 | 53 | 1020.2 |
| 20260901011524 | 71 | 315 | 1.7 | 6.1 | 0.00 | 0.00 | 0.00 | 54 | 1020.2 |
| 20260901011013 | 71 | 311 | 0.9 | 7.8 | 0.00 | 0.00 | 0.00 | 55 | 1020.2 |
| 20260901010514 | 71 | 213 | 2.6 | 7.8 | 0.00 | 0.00 | 0.00 | 55 | 1020.1 |
| 20260901010043 | 71 | 36 | 2.6 | 7.8 | 0.00 | 0.00 | 0.00 | 55 | 1020.1 |
| 20260901005515 | 71 | 278 | 1.7 | 7.8 | 0.00 | 0.00 | 0.00 | 55 | 1020.1 |
| 20260901005015 | 72 | 349 | 2.6 | 7.8 | 0.00 | 0.00 | 0.00 | 54 | 1020.2 |
| 20260901004520 | 72 | 262 | 2.6 | 10.4 | 0.00 | 0.00 | 0.00 | 53 | 1020.2 |
| 20260901004011 | 72 | 272 | 2.6 | 10.4 | 0.00 | 0.00 | 0.00 | 53 | 1020.4 |
| 20260901003512 | 73 | 242 | 2.6 | 13.0 | 0.00 | 0.00 | 0.00 | 52 | 1020.3 |
| 20260901003030 | 75 | 221 | 5.2 | 13.0 | 0.00 | 0.00 | 0.00 | 48 | 1020.1 |
| 20260901002516 | 76 | 282 | 2.6 | 12.2 | 0.00 | 0.00 | 0.00 | 42 | 1019.6 |
| 20260901002017 | 78 | 188 | 3.5 | 11.3 | 0.00 | 0.00 | 0.00 | 39 | 1019.6 |
| 20260901001536 | 79 | 288 | 1.7 | 7.8 | 0.00 | 0.00 | 0.00 | 36 | 1019.5 |
| 20260901001018 | 79 | 281 | 1.7 | 7.8 | 0.00 | 0.00 | 0.00 | 33 | 1019.4 |
| 20260901000509 | 80 | 260 | 1.7 | 5.2 | 0.00 | 0.00 | 0.00 | 33 | 1019.3 |
| 20260901000022 | 81 | 288 | 0.9 | 4.3 | 0.00 | 0.00 | 0.00 | 32 | 1019.2 |
| 20260831235517 | 81 | 277 | 1.7 | 3.5 | 0.00 | 0.00 | 0.00 | 32 | 1019.1 |
| 20260831235017 | 82 | 263 | 0.9 | 3.5 | 0.00 | 0.00 | 0.00 | 32 | 1019.2 |
| 20260831234533 | 82 | 262 | 0.9 | 4.3 | 0.00 | 0.00 | 0.00 | 31 | 1019.2 |
| 20260831234020 | 83 | 188 | 0.9 | 7.0 | 0.00 | 0.00 | 0.00 | 31 | 1019.2 |
| 20260831233516 | 83 | 267 | 3.5 | 7.0 | 0.00 | 0.00 | 0.00 | 30 | 1019.0 |
| 20260831233037 | 84 | 338 | 0.0 | 3.5 | 0.00 | 0.00 | 0.00 | 29 | 1019.0 |
| 20260831232515 | 84 | 330 | 0.0 | 2.6 | 0.00 | 0.00 | 0.00 | 29 | 1018.9 |
| 20260831232012 | 84 | 244 | 0.0 | 1.7 | 0.00 | 0.00 | 0.00 | 29 | 1019.0 |
| 20260831231527 | 84 | 193 | 0.0 | 1.7 | 0.00 | 0.00 | 0.00 | 29 | 1019.0 |
| 20260831231017 | 84 | 192 | 0.0 | 1.7 | 0.00 | 0.00 | 0.00 | 28 | 1019.1 |
| 20260831230515 | 85 | 213 | 0.0 | 1.7 | 0.00 | 0.00 | 0.00 | 28 | 1019.1 |
| 20260831230037 | 85 | 59 | 0.0 | 2.6 | 0.00 | 0.00 | 0.00 | 30 | 1019.2 |
| 20260831225518 | 86 | 194 | 0.9 | 3.5 | 0.00 | 0.00 | 0.00 | 28 | 1019.2 |
| 20260831225016 | 86 | 38 | 0.0 | 3.5 | 0.00 | 0.00 | 0.00 | 28 | 1019.3 |
| 20260831224519 | 85 | 229 | 0.9 | 3.5 | 0.00 | 0.00 | 0.00 | 27 | 1019.3 |
| 20260831224014 | 85 | 360 | 0.9 | 4.3 | 0.00 | 0.00 | 0.00 | 28 | 1019.2 |
| 20260831223514 | 85 | 36 | 2.6 | 4.3 | 0.00 | 0.00 | 0.00 | 28 | 1019.2 |
| 20260831223037 | 85 | 133 | 1.7 | 4.3 | 0.00 | 0.00 | 0.00 | 29 | 1019.2 |
| 20260831222519 | 84 | 42 | 0.0 | 2.6 | 0.00 | 0.00 | 0.00 | 29 | 1019.2 |
| 20260831222016 | 84 | 40 | 0.9 | 2.6 | 0.00 | 0.00 | 0.00 | 31 | 1019.4 |
| 20260831221536 | 84 | 37 | 0.0 | 2.6 | 0.00 | 0.00 | 0.00 | 31 | 1019.4 |
| 20260831221023 | 84 | 17 | 0.9 | 1.7 | 0.00 | 0.00 | 0.00 | 29 | 1019.5 |
| 20260831220513 | 84 | 52 | 0.0 | 1.7 | 0.00 | 0.00 | 0.00 | 30 | 1019.5 |
| 20260831220028 | 84 | 44 | 0.9 | 2.6 | 0.00 | 0.00 | 0.00 | 31 | 1019.5 |
| 20260831215519 | 83 | 35 | 0.9 | 2.6 | 0.00 | 0.00 | 0.00 | 31 | 1019.5 |
| 20260831215024 | 83 | 72 | 0.9 | 4.3 | 0.00 | 0.00 | 0.00 | 30 | 1019.5 |
| 20260831214504 | 84 | 75 | 1.7 | 4.3 | 0.00 | 0.00 | 0.00 | 31 | 1019.6 |
| 20260831214003 | 84 | 53 | 1.7 | 2.6 | 0.00 | 0.00 | 0.00 | 31 | 1019.6 |
| 20260831213508 | 84 | 38 | 0.9 | 2.6 | 0.00 | 0.00 | 0.00 | 31 | 1019.6 |
| 20260831213030 | 84 | 119 | 0.9 | 2.6 | 0.00 | 0.00 | 0.00 | 30 | 1019.8 |
| 20260831212513 | 84 | 53 | 0.0 | 5.2 | 0.00 | 0.00 | 0.00 | 30 | 1019.9 |
| 20260831212016 | 84 | 59 | 0.9 | 5.2 | 0.00 | 0.00 | 0.00 | 31 | 1020.0 |
| 20260831211531 | 83 | 55 | 2.6 | 4.3 | 0.00 | 0.00 | 0.00 | 31 | 1020.1 |
| 20260831211004 | 84 | 40 | 2.6 | 3.5 | 0.00 | 0.00 | 0.00 | 30 | 1020.2 |
| 20260831210504 | 84 | 35 | 1.7 | 3.5 | 0.00 | 0.00 | 0.00 | 30 | 1020.2 |
| 20260831210015 | 84 | 76 | 0.9 | 3.5 | 0.00 | 0.00 | 0.00 | 31 | 1020.3 |
| 20260831205508 | 84 | 92 | 0.9 | 2.6 | 0.00 | 0.00 | 0.00 | 31 | 1020.3 |
| 20260831205010 | 83 | 19 | 0.9 | 3.5 | 0.00 | 0.00 | 0.00 | 31 | 1020.4 |
| 20260831204525 | 83 | 138 | 0.9 | 6.1 | 0.00 | 0.00 | 0.00 | 31 | 1020.5 |
| 20260831204016 | 83 | 144 | 0.9 | 6.1 | 0.00 | 0.00 | 0.00 | 31 | 1020.5 |
| 20260831203515 | 83 | 142 | 0.9 | 4.3 | 0.00 | 0.00 | 0.00 | 32 | 1020.5 |
| 20260831203010 | 83 | 82 | 0.0 | 4.3 | 0.00 | 0.00 | 0.00 | 32 | 1020.6 |
| 20260831202507 | 83 | 130 | 0.9 | 5.2 | 0.00 | 0.01 | 0.00 | 32 | 1020.6 |
| 20260831202007 | 83 | 125 | 0.0 | 5.2 | 0.00 | 0.01 | 0.00 | 31 | 1020.7 |
| 20260831201522 | 83 | 36 | 2.6 | 5.2 | 0.00 | 0.06 | 0.00 | 32 | 1020.8 |
| 20260831201012 | 84 | 79 | 1.7 | 3.5 | 0.00 | 0.06 | 0.00 | 32 | 1020.8 |
| 20260831200514 | 84 | 86 | 1.7 | 4.3 | 0.00 | 0.06 | 0.00 | 30 | 1020.9 |
| 20260831200030 | 84 | 130 | 1.7 | 4.3 | 0.00 | 0.06 | 0.00 | 30 | 1020.9 |
| 20260831195515 | 83 | 73 | 0.9 | 3.5 | 0.00 | 0.06 | 0.00 | 33 | 1020.9 |
| 20260831195004 | 82 | 24 | 0.0 | 3.5 | 0.00 | 0.06 | 0.00 | 37 | 1021.0 |
| 20260831194508 | 82 | 39 | 0.9 | 3.5 | 0.00 | 0.06 | 0.00 | 36 | 1021.0 |
| 20260831194008 | 81 | 331 | 0.0 | 3.5 | 0.00 | 0.06 | 0.00 | 38 | 1021.0 |
| 20260831193510 | 81 | 338 | 0.9 | 3.5 | 0.00 | 0.06 | 0.00 | 37 | 1021.2 |
| 20260831193024 | 81 | 5 | 0.0 | 3.5 | 0.00 | 0.06 | 0.00 | 39 | 1021.2 |
| 20260831192515 | 80 | 24 | 0.9 | 3.5 | 0.00 | 0.06 | 0.00 | 40 | 1021.3 |
| 20260831192021 | 80 | 32 | 0.9 | 3.5 | 0.00 | 0.07 | 0.00 | 39 | 1021.4 |
| 20260831191530 | 79 | 9 | 1.7 | 3.5 | 0.00 | 0.07 | 0.00 | 39 | 1021.5 |
| 20260831191003 | 80 | 57 | 1.7 | 2.6 | 0.00 | 0.07 | 0.00 | 39 | 1021.7 |
| 20260831190506 | 80 | 28 | 0.9 | 4.3 | 0.00 | 0.07 | 0.00 | 40 | 1021.7 |
| 20260831190014 | 80 | 38 | 1.7 | 4.3 | 0.00 | 0.07 | 0.00 | 40 | 1021.8 |
| 20260831185512 | 79 | 107 | 0.9 | 1.7 | 0.00 | 0.07 | 0.00 | 40 | 1021.9 |
| 20260831185012 | 79 | 12 | 0.9 | 4.3 | 0.00 | 0.07 | 0.00 | 41 | 1021.9 |
| 20260831184531 | 78 | 360 | 1.7 | 4.3 | 0.00 | 0.07 | 0.00 | 41 | 1021.9 |
| 20260831184017 | 78 | 32 | 0.0 | 4.3 | 0.00 | 0.07 | 0.00 | 41 | 1021.9 |
| 20260831183517 | 77 | 46 | 1.7 | 4.3 | 0.00 | 0.07 | 0.00 | 41 | 1022.0 |
| 20260831183009 | 77 | 34 | 1.7 | 4.3 | 0.00 | 0.07 | 0.00 | 40 | 1022.0 |
| 20260831182506 | 77 | 28 | 0.9 | 2.6 | 0.00 | 0.07 | 0.00 | 41 | 1022.0 |
| 20260831182012 | 77 | 360 | 0.9 | 2.6 | 0.00 | 0.07 | 0.00 | 41 | 1022.1 |
| 20260831181521 | 76 | 317 | 0.0 | 1.7 | 0.00 | 0.07 | 0.00 | 40 | 1022.1 |
| 20260831181014 | 76 | 352 | 0.0 | 2.6 | 0.00 | 0.07 | 0.00 | 40 | 1022.1 |
| 20260831180515 | 75 | 350 | 0.0 | 2.6 | 0.00 | 0.07 | 0.00 | 43 | 1022.1 |
| 20260831180030 | 75 | 13 | 0.9 | 3.5 | 0.00 | 0.07 | 0.00 | 43 | 1022.1 |
| 20260831175521 | 75 | 346 | 0.9 | 3.5 | 0.00 | 0.07 | 0.00 | 43 | 1022.2 |
| 20260831175007 | 75 | 9 | 0.0 | 1.7 | 0.00 | 0.07 | 0.00 | 44 | 1022.2 |
| 20260831174531 | 74 | 326 | 0.0 | 2.6 | 0.00 | 0.07 | 0.00 | 44 | 1022.2 |
| 20260831174014 | 74 | 34 | 0.9 | 2.6 | 0.00 | 0.07 | 0.00 | 45 | 1022.2 |
| 20260831173515 | 74 | 21 | 0.9 | 2.6 | 0.00 | 0.07 | 0.00 | 45 | 1022.2 |
| 20260831173027 | 74 | 48 | 1.7 | 2.6 | 0.00 | 0.07 | 0.00 | 45 | 1022.2 |
| 20260831172520 | 74 | 94 | 0.9 | 2.6 | 0.00 | 0.07 | 0.00 | 47 | 1022.2 |
| 20260831172016 | 74 | 42 | 0.9 | 3.5 | 0.00 | 0.07 | 0.00 | 45 | 1022.3 |
| 20260831171510 | 74 | 51 | 0.9 | 3.5 | 0.00 | 0.07 | 0.00 | 47 | 1022.2 |
| 20260831171007 | 74 | 48 | 0.9 | 2.6 | 0.00 | 0.07 | 0.00 | 43 | 1022.3 |
| 20260831170508 | 74 | 58 | 0.9 | 3.5 | 0.00 | 0.07 | 0.00 | 44 | 1022.3 |
| 20260831170018 | 73 | 45 | 0.9 | 3.5 | 0.00 | 0.07 | 0.00 | 45 | 1022.3 |
| 20260831165514 | 73 | 38 | 0.9 | 3.5 | 0.00 | 0.07 | 0.00 | 45 | 1022.3 |
| 20260831165017 | 73 | 28 | 0.0 | 3.5 | 0.00 | 0.07 | 0.00 | 46 | 1022.2 |
| 20260831164529 | 73 | 38 | 1.7 | 3.5 | 0.00 | 0.07 | 0.00 | 47 | 1022.3 |
| 20260831164018 | 73 | 22 | 0.9 | 3.5 | 0.00 | 0.07 | 0.00 | 46 | 1022.3 |
| 20260831163504 | 73 | 34 | 2.6 | 3.5 | 0.00 | 0.07 | 0.00 | 45 | 1022.3 |
| 20260831163012 | 73 | 21 | 0.0 | 3.5 | 0.00 | 0.07 | 0.00 | 45 | 1022.2 |
| 20260831162509 | 73 | 22 | 0.9 | 4.3 | 0.00 | 0.07 | 0.00 | 45 | 1022.2 |
| 20260831162012 | 73 | 47 | 2.6 | 4.3 | 0.00 | 0.07 | 0.00 | 46 | 1022.2 |
| 20260831161528 | 73 | 81 | 1.7 | 5.2 | 0.00 | 0.07 | 0.00 | 48 | 1022.1 |
| 20260831161015 | 73 | 16 | 1.7 | 4.3 | 0.00 | 0.07 | 0.00 | 47 | 1022.0 |
| 20260831160514 | 73 | 37 | 0.9 | 2.6 | 0.00 | 0.07 | 0.00 | 49 | 1021.9 |
| 20260831160033 | 74 | 69 | 1.7 | 1.7 | 0.00 | 0.07 | 0.00 | 47 | 1021.9 |
| 20260831155506 | 73 | 46 | 0.0 | 1.7 | 0.00 | 0.07 | 0.00 | 43 | 1021.8 |
| 20260831155008 | 73 | 46 | 0.0 | 1.7 | 0.00 | 0.07 | 0.00 | 40 | 1021.9 |
| 20260831154526 | 73 | 46 | 0.9 | 1.7 | 0.00 | 0.07 | 0.00 | 46 | 1021.8 |
| 20260831154004 | 73 | 46 | 0.0 | 1.7 | 0.00 | 0.07 | 0.00 | 45 | 1021.8 |
| 20260831153503 | 72 | 46 | 0.9 | 1.7 | 0.00 | 0.07 | 0.00 | 48 | 1021.7 |
| 20260831153006 | 72 | 18 | 0.0 | 0.9 | 0.00 | 0.07 | 0.00 | 51 | 1021.7 |
| 20260831152503 | 71 | 28 | 0.0 | 0.9 | 0.00 | 0.07 | 0.00 | 52 | 1021.7 |
| 20260831152004 | 71 | 38 | 0.9 | 2.6 | 0.00 | 0.07 | 0.00 | 52 | 1021.8 |
| 20260831151504 | 70 | 57 | 0.0 | 2.6 | 0.00 | 0.07 | 0.00 | 58 | 1021.8 |
| 20260831151004 | 70 | 39 | 0.9 | 2.6 | 0.00 | 0.07 | 0.00 | 58 | 1021.8 |
| 20260831150502 | 70 | 41 | 0.0 | 2.6 | 0.00 | 0.07 | 0.00 | 58 | 1021.8 |
| 20260831150002 | 69 | 41 | 0.0 | 2.6 | 0.00 | 0.07 | 0.00 | 59 | 1021.8 |
| 20260831145503 | 69 | 38 | 0.9 | 2.6 | 0.00 | 0.07 | 0.00 | 55 | 1021.8 |
| 20260831145005 | 68 | 167 | 0.0 | 2.6 | 0.00 | 0.07 | 0.00 | 53 | 1021.8 |
| 20260831144505 | 68 | 195 | 0.0 | 2.6 | 0.00 | 0.07 | 0.00 | 57 | 1021.9 |
| 20260831144004 | 67 | 174 | 0.0 | 2.6 | 0.00 | 0.07 | 0.00 | 57 | 1021.9 |
| 20260831143504 | 66 | 188 | 0.0 | 1.7 | 0.00 | 0.07 | 0.00 | 64 | 1021.9 |
| 20260831143004 | 65 | 179 | 0.0 | 1.7 | 0.00 | 0.07 | 0.00 | 64 | 1021.8 |
| 20260831142504 | 64 | 177 | 0.0 | 1.7 | 0.00 | 0.07 | 0.00 | 65 | 1021.7 |
| 20260831142002 | 64 | 150 | 0.0 | 1.7 | 0.00 | 0.07 | 0.00 | 66 | 1021.7 |
| 20260831141502 | 64 | 90 | 0.0 | 1.7 | 0.00 | 0.07 | 0.00 | 69 | 1021.7 |
| 20260831141003 | 63 | 67 | 0.0 | 1.7 | 0.00 | 0.07 | 0.00 | 70 | 1021.7 |
| 20260831140504 | 63 | 67 | 0.0 | 1.7 | 0.00 | 0.07 | 0.00 | 70 | 1021.7 |
| 20260831140006 | 62 | 187 | 0.0 | 1.7 | 0.00 | 0.07 | 0.00 | 69 | 1021.6 |
| 20260831135503 | 62 | 201 | 0.0 | 1.7 | 0.00 | 0.07 | 0.00 | 69 | 1021.5 |
| 20260831135003 | 62 | 190 | 0.0 | 1.7 | 0.00 | 0.07 | 0.00 | 69 | 1021.4 |
| 20260831134505 | 62 | 176 | 0.0 | 1.7 | 0.00 | 0.07 | 0.00 | 68 | 1021.3 |
| 20260831134002 | 62 | 176 | 0.0 | 1.7 | 0.00 | 0.07 | 0.00 | 68 | 1021.3 |
| 20260831133504 | 61 | 176 | 0.0 | 0.0 | 0.00 | 0.07 | 0.00 | 67 | 1021.2 |
| 20260831133006 | 61 | 176 | 0.0 | 0.0 | 0.00 | 0.07 | 0.00 | 66 | 1021.1 |
| 20260831132504 | 61 | 176 | 0.0 | 1.7 | 0.00 | 0.07 | 0.00 | 66 | 1021.1 |
| 20260831132004 | 61 | 176 | 0.0 | 1.7 | 0.00 | 0.07 | 0.00 | 65 | 1021.0 |
| 20260831131510 | 61 | 176 | 0.0 | 1.7 | 0.00 | 0.07 | 0.00 | 65 | 1021.1 |
| 20260831131009 | 61 | 176 | 0.0 | 1.7 | 0.00 | 0.07 | 0.00 | 64 | 1020.9 |
| 20260831130505 | 61 | 176 | 0.0 | 1.7 | 0.00 | 0.07 | 0.00 | 63 | 1020.9 |
| 20260831130003 | 62 | 176 | 0.0 | 1.7 | 0.00 | 0.07 | 0.00 | 63 | 1020.8 |
| 20260831125503 | 62 | 111 | 0.0 | 1.7 | 0.00 | 0.07 | 0.00 | 63 | 1020.8 |
| 20260831125004 | 62 | 76 | 0.0 | 1.7 | 0.00 | 0.07 | 0.00 | 61 | 1020.6 |
| 20260831124509 | 62 | 76 | 0.0 | 1.7 | 0.00 | 0.07 | 0.00 | 62 | 1020.4 |
| 20260831124005 | 62 | 76 | 0.0 | 1.7 | 0.00 | 0.07 | 0.00 | 60 | 1020.4 |
| 20260831123505 | 63 | 76 | 0.0 | 1.7 | 0.00 | 0.07 | 0.00 | 57 | 1020.5 |
| 20260831123008 | 63 | 76 | 0.0 | 0.9 | 0.00 | 0.07 | 0.00 | 57 | 1020.5 |
| 20260831122504 | 63 | 76 | 0.0 | 1.7 | 0.00 | 0.07 | 0.00 | 57 | 1020.4 |
| 20260831122004 | 64 | 76 | 0.0 | 1.7 | 0.00 | 0.07 | 0.00 | 56 | 1020.4 |
| 20260831121505 | 64 | 76 | 0.0 | 1.7 | 0.00 | 0.07 | 0.00 | 56 | 1020.2 |
| 20260831121005 | 64 | 9 | 0.0 | 1.7 | 0.00 | 0.07 | 0.00 | 56 | 1020.1 |
| 20260831120507 | 64 | 257 | 0.0 | 2.6 | 0.00 | 0.07 | 0.00 | 54 | 1020.1 |
| 20260831120011 | 64 | 283 | 0.0 | 2.6 | 0.00 | 0.07 | 0.00 | 54 | 1020.1 |
| 20260831115506 | 64 | 239 | 0.0 | 1.7 | 0.00 | 0.07 | 0.00 | 53 | 1020.1 |
| 20260831115004 | 64 | 225 | 0.0 | 1.7 | 0.00 | 0.07 | 0.00 | 52 | 1019.9 |
| 20260831114510 | 64 | 239 | 0.0 | 3.5 | 0.00 | 0.07 | 0.00 | 54 | 1020.0 |
| 20260831114004 | 63 | 220 | 0.9 | 3.5 | 0.00 | 0.07 | 0.00 | 54 | 1020.0 |
| 20260831113506 | 62 | 243 | 0.9 | 2.6 | 0.00 | 0.07 | 0.00 | 59 | 1020.0 |
| 20260831113009 | 62 | 176 | 0.0 | 1.7 | 0.00 | 0.07 | 0.00 | 60 | 1020.0 |
| 20260831112503 | 62 | 312 | 0.0 | 1.7 | 0.00 | 0.07 | 0.00 | 60 | 1019.9 |
| 20260831112005 | 62 | 312 | 0.0 | 1.7 | 0.00 | 0.07 | 0.00 | 60 | 1019.9 |
| 20260831111508 | 62 | 201 | 0.0 | 1.7 | 0.00 | 0.07 | 0.00 | 60 | 1019.8 |
| 20260831111007 | 62 | 236 | 0.0 | 1.7 | 0.00 | 0.07 | 0.00 | 61 | 1019.9 |
| 20260831110508 | 62 | 232 | 0.9 | 1.7 | 0.00 | 0.07 | 0.00 | 59 | 1019.9 |
| 20260831110003 | 62 | 146 | 0.0 | 1.7 | 0.00 | 0.07 | 0.00 | 59 | 1019.8 |
| 20260831105506 | 62 | 153 | 0.0 | 1.7 | 0.00 | 0.07 | 0.00 | 59 | 1019.9 |
| 20260831105007 | 62 | 153 | 0.0 | 1.7 | 0.00 | 0.07 | 0.00 | 58 | 1019.8 |
| 20260831104526 | 62 | 154 | 0.9 | 1.7 | 0.00 | 0.07 | 0.00 | 56 | 1019.7 |
| 20260831104007 | 61 | 205 | 0.0 | 1.7 | 0.00 | 0.07 | 0.00 | 61 | 1019.7 |
| 20260831103505 | 61 | 205 | 0.0 | 1.7 | 0.00 | 0.07 | 0.00 | 62 | 1019.7 |
| 20260831103008 | 61 | 104 | 0.0 | 1.7 | 0.00 | 0.07 | 0.00 | 63 | 1019.6 |
| 20260831102508 | 61 | 145 | 0.0 | 1.7 | 0.00 | 0.07 | 0.00 | 63 | 1019.7 |
| 20260831102005 | 61 | 108 | 0.0 | 1.7 | 0.00 | 0.07 | 0.00 | 65 | 1019.6 |
| 20260831101507 | 61 | 103 | 0.0 | 2.6 | 0.00 | 0.07 | 0.00 | 65 | 1019.6 |
| 20260831101005 | 61 | 117 | 0.0 | 2.6 | 0.00 | 0.07 | 0.00 | 66 | 1019.6 |
| 20260831100509 | 61 | 172 | 0.0 | 1.7 | 0.00 | 0.07 | 0.00 | 66 | 1019.6 |
| 20260831100009 | 61 | 172 | 0.0 | 1.7 | 0.00 | 0.07 | 0.00 | 65 | 1019.4 |
| 20260831095512 | 61 | 169 | 0.0 | 1.7 | 0.00 | 0.07 | 0.00 | 64 | 1019.3 |
| 20260831095007 | 62 | 168 | 0.0 | 1.7 | 0.00 | 0.07 | 0.00 | 65 | 1019.2 |
| 20260831094514 | 62 | 190 | 0.0 | 1.7 | 0.00 | 0.07 | 0.00 | 66 | 1019.2 |
| 20260831094004 | 62 | 199 | 0.0 | 1.7 | 0.00 | 0.07 | 0.00 | 66 | 1019.2 |
| 20260831093504 | 62 | 202 | 0.0 | 1.7 | 0.00 | 0.07 | 0.00 | 65 | 1019.1 |
| 20260831090004 | 63 | 215 | 0.0 | 1.7 | 0.00 | 0.07 | 0.00 | 62 | 1019.1 |
| 20260831085503 | 63 | 219 | 0.0 | 0.9 | 0.00 | 0.07 | 0.00 | 61 | 1019.1 |
| 20260831085006 | 64 | 187 | 0.0 | 1.7 | 0.00 | 0.07 | 0.00 | 61 | 1019.2 |
| 20260831084515 | 64 | 186 | 0.0 | 1.7 | 0.00 | 0.07 | 0.00 | 60 | 1019.2 |
| 20260831084007 | 64 | 192 | 0.0 | 1.7 | 0.00 | 0.07 | 0.00 | 59 | 1019.2 |
| 20260831083508 | 64 | 192 | 0.0 | 1.7 | 0.00 | 0.07 | 0.00 | 56 | 1019.3 |
| 20260831083014 | 65 | 188 | 0.0 | 1.7 | 0.00 | 0.07 | 0.00 | 56 | 1019.3 |
| 20260831082506 | 65 | 188 | 0.0 | 1.7 | 0.00 | 0.07 | 0.00 | 55 | 1019.4 |
| 20260831082003 | 66 | 188 | 0.0 | 1.7 | 0.00 | 0.07 | 0.00 | 54 | 1019.3 |
| 20260831081508 | 66 | 188 | 0.0 | 1.7 | 0.00 | 0.07 | 0.00 | 53 | 1019.4 |
| 20260831081010 | 67 | 188 | 0.0 | 1.7 | 0.00 | 0.07 | 0.00 | 51 | 1019.5 |
| 20260831080507 | 67 | 188 | 0.0 | 1.7 | 0.00 | 0.07 | 0.00 | 50 | 1019.5 |
| 20260831080018 | 68 | 185 | 0.0 | 1.7 | 0.00 | 0.07 | 0.00 | 48 | 1019.6 |
| 20260831075513 | 68 | 185 | 0.0 | 1.7 | 0.00 | 0.07 | 0.00 | 49 | 1019.6 |
| 20260831075007 | 68 | 185 | 0.0 | 1.7 | 0.00 | 0.07 | 0.00 | 48 | 1019.5 |
| 20260831074514 | 68 | 185 | 0.0 | 1.7 | 0.00 | 0.07 | 0.00 | 46 | 1019.6 |
| 20260831074006 | 68 | 164 | 0.0 | 0.9 | 0.00 | 0.07 | 0.00 | 46 | 1019.7 |
| 20260831073504 | 68 | 145 | 0.9 | 1.7 | 0.00 | 0.07 | 0.00 | 47 | 1019.8 |
| 20260831073011 | 69 | 155 | 0.9 | 1.7 | 0.00 | 0.07 | 0.00 | 46 | 1019.9 |
| 20260831072510 | 69 | 114 | 0.0 | 2.6 | 0.00 | 0.07 | 0.00 | 44 | 1019.9 |
| 20260831072008 | 69 | 186 | 0.0 | 2.6 | 0.00 | 0.07 | 0.00 | 44 | 1019.9 |
| 20260831071519 | 69 | 206 | 0.9 | 3.5 | 0.00 | 0.07 | 0.00 | 44 | 1019.9 |
| 20260831071005 | 69 | 275 | 0.9 | 3.5 | 0.00 | 0.07 | 0.00 | 44 | 1019.9 |
| 20260831070504 | 69 | 277 | 0.0 | 1.7 | 0.00 | 0.07 | 0.00 | 47 | 1019.9 |